GW2924 Weather Reports


time (UTC)temp
C
wind
direction
speed
KPH
gust
KPH
rain 1hr
cm
rain 24hr
cm
rain mn
cm
humidity
%
barometer
mb
20260504081057 9 178 8.0 14.5 0.00 0.00 0.00 59 1000.2
20260504080558 9 288 4.8 14.5 0.00 0.00 0.00 59 1000.3
20260504080103 9 200 4.8 12.9 0.00 0.00 0.00 59 1000.4
20260504060105 10 151 1.6 11.3 0.00 0.00 0.00 54 1002.4
20260504050556 8 228 0.0 4.8 0.00 0.00 0.00 59 1003.4
20260504045555 8 193 1.6 4.8 0.00 0.00 0.00 60 1003.4
20260504045055 8 199 1.6 6.4 0.00 0.00 0.00 62 1003.5
20260504044558 8 240 3.2 6.4 0.00 0.00 0.00 62 1003.6
20260504044055 8 274 3.2 6.4 0.00 0.00 0.00 62 1003.7
20260504043555 8 276 3.2 6.4 0.00 0.00 0.00 62 1003.8
20260504043059 8 284 1.6 4.8 0.00 0.00 0.00 62 1003.8
20260504042554 8 276 1.6 4.8 0.00 0.00 0.00 62 1003.9
20260504042053 8 212 0.0 3.2 0.00 0.00 0.00 62 1004.0
20260504041554 8 174 0.0 3.2 0.00 0.00 0.00 61 1004.0
20260504041052 8 214 0.0 3.2 0.00 0.00 0.00 61 1004.1
20260504040554 8 298 0.0 3.2 0.00 0.00 0.00 61 1004.2
20260504040059 8 243 0.0 3.2 0.00 0.00 0.00 60 1004.3
20260504035552 8 228 1.6 3.2 0.00 0.00 0.00 59 1004.4
20260504035055 8 217 1.6 4.8 0.00 0.00 0.00 58 1004.5
20260504034623 8 231 1.6 4.8 0.00 0.00 0.00 58 1004.5
20260504034057 9 245 1.6 3.2 0.00 0.00 0.00 58 1004.6
20260504033555 9 272 0.0 3.2 0.00 0.00 0.00 55 1004.7
20260504033055 9 159 1.6 3.2 0.00 0.00 0.00 54 1004.7
20260504032554 9 195 0.0 1.6 0.00 0.00 0.00 54 1004.7
20260504032057 9 0 0.0 3.2 0.00 0.00 0.00 55 1004.8
20260504031555 10 0 0.0 3.2 0.00 0.00 0.00 55 1004.9
20260504031055 10 232 1.6 3.2 0.00 0.00 0.00 55 1004.8
20260504030555 10 195 1.6 3.2 0.00 0.00 0.00 54 1004.9
20260504030055 10 181 0.0 3.2 0.00 0.00 0.00 54 1005.0
20260504025555 10 226 1.6 3.2 0.00 0.00 0.00 54 1005.1
20260504025056 10 232 1.6 3.2 0.00 0.00 0.00 53 1005.1
20260504024555 10 205 0.0 3.2 0.00 0.00 0.00 53 1005.1
20260504024052 10 198 0.0 3.2 0.00 0.00 0.00 52 1005.1
20260504023556 10 211 0.0 1.6 0.00 0.00 0.00 51 1005.1
20260504023058 11 0 0.0 1.6 0.00 0.00 0.00 52 1005.1
20260504022553 11 210 0.0 1.6 0.00 0.00 0.00 50 1005.2
20260504022055 11 207 0.0 1.6 0.00 0.00 0.00 50 1005.1
20260504021554 11 0 0.0 1.6 0.00 0.00 0.00 50 1005.1
20260504021056 11 0 0.0 1.6 0.00 0.00 0.00 50 1005.3
20260504020554 11 200 0.0 0.0 0.00 0.00 0.00 48 1005.1
20260504020117 12 194 0.0 0.0 0.00 0.00 0.00 47 1005.1
20260504015552 12 0 0.0 0.0 0.00 0.00 0.00 46 1005.1
20260504015051 13 0 0.0 1.6 0.00 0.00 0.00 44 1005.1
20260504014600 13 0 0.0 3.2 0.00 0.00 0.00 43 1005.1
20260504014055 13 194 0.0 3.2 0.00 0.00 0.00 42 1005.1
20260504013558 13 190 0.0 1.6 0.00 0.00 0.00 43 1005.1
20260504013123 14 0 0.0 0.0 0.00 0.00 0.00 43 1005.1
20260504012555 14 0 0.0 1.6 0.00 0.00 0.00 42 1005.1
20260504012051 15 0 0.0 3.2 0.00 0.00 0.00 40 1005.1
20260504011554 15 0 1.6 3.2 0.00 0.00 0.00 38 1005.1
20260504011052 15 193 0.0 1.6 0.00 0.00 0.00 39 1005.1
20260504010552 16 221 0.0 4.8 0.00 0.00 0.00 37 1005.1
20260504010055 16 200 0.0 4.8 0.00 0.00 0.00 36 1005.1
20260504005554 16 262 1.6 4.8 0.00 0.00 0.00 35 1005.1
20260504005054 17 289 3.2 6.4 0.00 0.00 0.00 35 1005.1
20260504004558 17 288 3.2 6.4 0.00 0.00 0.00 35 1005.1
20260504004053 17 303 1.6 6.4 0.00 0.00 0.00 33 1005.1
20260504003553 17 307 3.2 11.3 0.00 0.00 0.00 33 1005.1
20260504003057 18 287 3.2 11.3 0.00 0.00 0.00 32 1005.1
20260504002556 18 314 4.8 11.3 0.00 0.00 0.00 31 1005.1
20260504002056 18 312 1.6 8.0 0.00 0.00 0.00 32 1005.2
20260504001556 18 294 3.2 8.0 0.00 0.00 0.00 29 1005.2
20260504001057 19 294 3.2 8.0 0.00 0.00 0.00 31 1005.3
20260504000553 19 291 3.2 8.0 0.00 0.00 0.00 29 1005.3
20260504000107 20 283 4.8 8.0 0.00 0.00 0.00 30 1005.3
20260503235556 20 271 4.8 11.3 0.00 0.00 0.00 30 1005.4
20260503235058 20 255 3.2 11.3 0.00 0.00 0.00 29 1005.3
20260503234558 20 299 3.2 9.7 0.00 0.00 0.00 29 1005.3
20260503234057 20 297 3.2 9.7 0.00 0.00 0.00 29 1005.3
20260503233559 20 289 3.2 11.3 0.00 0.00 0.00 29 1005.4
20260503233058 20 314 4.8 12.9 0.00 0.00 0.00 29 1005.4
20260503232556 20 295 6.4 12.9 0.00 0.00 0.00 29 1005.4
20260503232056 20 307 6.4 12.9 0.00 0.00 0.00 28 1005.4
20260503231555 20 303 4.8 11.3 0.00 0.00 0.00 28 1005.5
20260503231100 20 271 4.8 14.5 0.00 0.00 0.00 27 1005.4
20260503230557 20 311 4.8 14.5 0.00 0.00 0.00 26 1005.5
20260503230101 20 286 6.4 16.1 0.00 0.00 0.00 28 1005.5
20260503225553 21 319 6.4 16.1 0.00 0.00 0.00 27 1005.5
20260503225057 21 285 3.2 14.5 0.00 0.00 0.00 29 1005.5
20260503224601 21 259 3.2 19.3 0.00 0.00 0.00 30 1005.5
20260503224057 20 286 9.7 19.3 0.00 0.00 0.00 31 1005.4
20260503223555 21 308 6.4 19.3 0.00 0.00 0.00 30 1005.4
20260503223056 21 297 4.8 11.3 0.00 0.00 0.00 31 1005.4
20260503222555 21 294 4.8 12.9 0.00 0.00 0.00 30 1005.4
20260503222056 21 297 6.4 14.5 0.00 0.00 0.00 28 1005.4
20260503221603 21 291 6.4 14.5 0.00 0.00 0.00 28 1005.4
20260503221058 21 189 6.4 11.3 0.00 0.00 0.00 28 1005.5
20260503220557 21 262 4.8 11.3 0.00 0.00 0.00 27 1005.4
20260503220055 21 307 6.4 14.5 0.00 0.00 0.00 28 1005.5
20260503215556 20 274 6.4 14.5 0.00 0.00 0.00 27 1005.4
20260503215056 21 269 4.8 14.5 0.00 0.00 0.00 27 1005.4
20260503214558 21 298 4.8 17.7 0.00 0.00 0.00 28 1005.4
20260503214058 20 311 8.0 17.7 0.00 0.00 0.00 28 1005.4
20260503213554 21 271 6.4 14.5 0.00 0.00 0.00 30 1005.4
20260503213102 21 264 4.8 17.7 0.00 0.00 0.00 33 1005.5
20260503212556 20 306 6.4 17.7 0.00 0.00 0.00 31 1005.5
20260503212056 21 230 6.4 11.3 0.00 0.00 0.00 32 1005.5
20260503211553 21 295 4.8 11.3 0.00 0.00 0.00 29 1005.5
20260503211055 21 332 3.2 11.3 0.00 0.00 0.00 35 1005.5
20260503210553 21 294 3.2 14.5 0.00 0.00 0.00 34 1005.5
20260503210053 21 307 6.4 14.5 0.00 0.00 0.00 30 1005.6
20260503205553 20 297 4.8 14.5 0.00 0.00 0.00 29 1005.7
20260503205053 20 327 4.8 14.5 0.00 0.00 0.00 33 1005.8
20260503204619 21 298 6.4 14.5 0.00 0.00 0.00 33 1005.8
20260503204052 21 297 3.2 16.1 0.00 0.00 0.00 32 1005.9
20260503203552 20 305 6.4 16.1 0.00 0.00 0.00 31 1005.9
20260503203059 20 270 4.8 17.7 0.00 0.00 0.00 33 1006.1
20260503202556 20 307 9.7 17.7 0.00 0.00 0.00 30 1006.1
20260503202100 20 255 9.7 17.7 0.00 0.00 0.00 33 1006.2
20260503201555 21 295 4.8 14.5 0.00 0.00 0.00 33 1006.1
20260503201053 21 286 6.4 14.5 0.00 0.00 0.00 32 1006.1
20260503200557 21 289 3.2 12.9 0.00 0.00 0.00 33 1006.1
20260503200101 20 290 6.4 16.1 0.00 0.00 0.00 29 1006.1
20260503195556 20 317 6.4 16.1 0.00 0.00 0.00 32 1006.1
20260503195056 21 291 6.4 14.5 0.00 0.00 0.00 31 1006.1
20260503194602 21 290 4.8 19.3 0.00 0.00 0.00 35 1006.2
20260503194054 21 295 8.0 19.3 0.00 0.00 0.00 33 1006.1
20260503193556 21 262 4.8 12.9 0.00 0.00 0.00 35 1006.2
20260503193108 21 299 4.8 14.5 0.00 0.00 0.00 37 1006.1
20260503192553 20 240 6.4 14.5 0.00 0.00 0.00 38 1006.2
20260503192053 20 307 8.0 17.7 0.00 0.00 0.00 40 1006.3
20260503191614 20 257 4.8 17.7 0.00 0.00 0.00 38 1006.2
20260503191056 20 295 9.7 16.1 0.00 0.00 0.00 39 1006.4
20260503190554 20 322 6.4 16.1 0.00 0.00 0.00 38 1006.4
20260503190057 20 297 6.4 11.3 0.00 0.00 0.00 34 1006.2
20260503185558 20 331 4.8 16.1 0.00 0.00 0.00 36 1006.4
20260503185052 20 314 4.8 16.1 0.00 0.00 0.00 39 1006.4
20260503184600 20 351 6.4 14.5 0.00 0.00 0.00 40 1006.3
20260503184057 20 266 6.4 14.5 0.00 0.00 0.00 38 1006.3
20260503183556 20 350 4.8 12.9 0.00 0.00 0.00 33 1006.4
20260503183058 20 281 4.8 12.9 0.00 0.00 0.00 34 1006.4
20260503182556 20 276 4.8 11.3 0.00 0.00 0.00 35 1006.4
20260503182057 20 301 6.4 12.9 0.00 0.00 0.00 33 1006.4
20260503181555 20 338 6.4 14.5 0.00 0.00 0.00 32 1006.5
20260503181054 20 308 6.4 16.1 0.00 0.00 0.00 33 1006.5
20260503180556 20 293 8.0 16.1 0.00 0.00 0.00 35 1006.6
20260503180100 20 293 6.4 17.7 0.00 0.00 0.00 39 1006.5
20260503175556 20 283 4.8 17.7 0.00 0.00 0.00 34 1006.6
20260503175056 20 346 4.8 14.5 0.00 0.00 0.00 39 1006.6
20260503174556 20 302 6.4 14.5 0.00 0.00 0.00 37 1006.7
20260503174053 20 284 8.0 14.5 0.00 0.00 0.00 36 1006.7
20260503173557 20 303 3.2 14.5 0.00 0.00 0.00 38 1006.7
20260503173100 20 304 6.4 14.5 0.00 0.00 0.00 38 1006.7
20260503172552 20 321 6.4 12.9 0.00 0.00 0.00 38 1006.8
20260503172058 19 314 4.8 19.3 0.00 0.00 0.00 44 1006.9
20260503171558 20 297 9.7 19.3 0.00 0.00 0.00 39 1006.9
20260503171056 20 302 4.8 14.5 0.00 0.00 0.00 45 1006.8
20260503170553 20 340 8.0 20.9 0.00 0.00 0.00 38 1006.8
20260503170111 19 266 4.8 20.9 0.00 0.00 0.00 41 1006.7
20260503160109 17 1 8.0 12.9 0.00 0.00 0.00 44 1006.6
20260503150556 16 281 4.8 12.9 0.00 0.00 0.00 48 1006.2
20260503131055 13 249 4.8 19.3 0.00 0.00 0.00 52 1005.8
20260503130555 13 144 8.0 24.1 0.00 0.00 0.00 51 1005.8
20260503110555 10 167 6.4 16.1 0.00 0.00 0.00 59 1005.3
20260503100105 11 181 12.9 27.4 0.00 0.00 0.00 56 1005.8
20260503081554 12 211 6.4 19.3 0.00 0.00 0.00 47 1007.1